Temp
86 82 78 83 85 85 82 79 76 79 79 80 80 75 76 78 80 79 79 78 78 77 78 78 78 80 80 79 78 78 78 78 81 80 78 76 77 79 79 77 76 76 76 75
81 77 84 85 83 82 81 78 76 76 78 79 73 72 73 76 79 81 79 79 78 77 77 77 77 78 78 77 77 77 77 77 80 82 80 75 74 81 82 80 77 76 77 77
79 81 83 82 80 79 80 78 76 76 76 78 76 72 71 75 77 77 78 80 79 79 77 75 76 76 78 76 76 76 76 76 77 79 81 80 80 82 81 80 79 76 77 77
81 84 80 80 79 82 74 80 78 76 75 72 77 69 74 76 73 75 77 78 79 78 78 77 76 76 76 77 77 76 75 76 77 78 77 73 76 75 76 78 76 78 75 75
76 79 79 78 79 81 76 80 78 76 75 73 74 71 77 78 74 76 78 79 80 80 79 78 79 77 78 78 77 76 74 74 74 73 75 78 75 78 77 78 74 74 75 75
80 84 83 81 80 80 81 78 77 77 76 65 73 70 74 78 78 82 82 79 79 80 80 79 79 78 77 78 77 76 73 72 73 74 73 71 71 71 74 73 76 77 77 77
77 79 82 83 78 80 80 74 65 63 64 64 70 68 74 75 77 78 79 80 80 81 80 78 77 78 77 77 77 76 74 72 73 73 72 72 71 71 71 73 73 73 75 75
70 65 78 81 79 76 76 75 66 55 59 66 69 63 74 76 77 78 79 81 81 81 82 81 79 75 76 75 75 76 75 73 74 73 72 72 72 75 76 72 74 75 75 74
70 70 78 77 80 79 74 70 75 66 68 63 70 73 77 75 73 74 77 79 78 80 80 80 77 74 76 76 74 74 74 73 74 73 73 72 73 71 72 71 73 75 73 75
75 66 75 74 79 78 76 79 65 68 54 53 65 65 67 70 72 73 75 76 79 80 80 79 80 79 79 79 77 75 75 74 74 73 75 76 74 74 74 74 72 71 72 72
78 72 69 73 72 73 71 71 70 69 66 57 55 64 74 74 75 74 76 78 80 80 81 82 82 81 81 81 81 77 76 75 74 74 74 73 74 74 73 72 72 72 71 72
77 72 67 70 73 74 74 72 72 63 60 64 61 62 77 75 77 77 77 79 80 81 82 83 82 80 80 80 80 78 76 77 76 75 74 73 73 73 72 71 72 73 71 72
73 69 62 63 68 70 68 72 71 69 64 60 57 62 75 76 75 77 77 80 80 80 80 80 80 78 78 79 78 78 77 77 78 76 75 73 72 72 71 71 71 72 71 72
69 70 66 62 67 72 65 68 69 67 61 63 65 67 72 72 73 76 77 78 79 80 80 80 79 79 79 79 78 78 78 79 77 76 75 73 70 69 69 69 70 70 71 70
71 64 69 71 69 69 69 68 68 64 67 61 67 67 72 74 76 76 75 75 75 74 75 75 76 79 78 76 76 77 77 78 78 75 73 69 67 64 61 65 64 60 62 63
69 64 66 65 67 67 65 68 69 69 68 67 68 65 76 77 78 73 73 73 72 72 73 73 73 72 72 72 75 76 75 74 70 68 65 63 63 56 56 55 55 55 55 61
67 66 61 57 67 64 57 65 67 68 70 68 62 70 72 70 69 70 72 73 71 71 72 71 70 70 71 72 72 72 70 69 68 69 68 66 64 64 64 62 60 58 56 57
66 64 64 58 58 46 66 70 70 68 70 72 70 71 71 71 72 74 75 73 72 72 71 71 72 71 72 73 71 70 69 70 69 67 66 64 64 60 62 62 60 63 64 64
70 66 59 52 54 60 64 64 63 63 64 71 70 71 71 72 72 69 73 74 72 71 70 71 71 70 70 70 70 69 68 67 66 64 64 63 63 62 64 64 63 63 63 63
65 64 61 58 48 46 61 69 72 70 56 73 71 69 68 68 63 65 71 71 70 70 70 69 70 70 67 67 67 65 65 64 63 65 65 66 64 64 63 62 62 63 63 63
58 59 54 54 50 58 69 69 71 53 59 70 71 70 68 66 69 70 71 69 69 69 67 68 68 67 65 66 64 60 62 64 65 65 64 64 64 62 62 61 62 61 59 57
59 56 55 56 51 46 71 67 59 67 70 70 71 71 69 71 68 68 68 66 66 65 66 67 65 63 63 63 63 63 63 65 65 65 64 63 63 63 64 61 61 59 55 56
56 64 61 60 60 68 71 70 72 72 70 71 72 73 72 69 68 68 66 66 65 65 65 64 63 61 64 64 65 63 62 64 64 63 61 62 62 62 62 60 58 57 57 54
65 69 61 59 66 66 69 72 73 73 74 74 75 73 73 70 69 67 66 65 65 65 63 65 65 64 62 64 63 64 64 63 62 59 60 61 60 58 60 61 62 58 57 58
70 64 62 62 66 67 69 71 72 72 74 73 74 73 72 71 68 67 65 64 65 65 65 65 64 63 62 64 63 63 62 62 59 59 57 59 61 60 58 58 60 59 58 51
67 64 61 60 69 66 70 71 74 70 70 71 71 70 71 70 67 66 65 65 65 64 64 63 62 62 62 63 61 61 61 61 57 56 58 60 60 59 58 60 56 43 44 44
MSLP
1008.49 1007.75 1006.88 1006.51 1006.54 1006.21 1006.17 1006.45 1006.77 1007.93 1009.21 1008.99 1009.23 1010.85 1011.93 1012.95 1013.26 1013.80 1014.37 1015.05 1015.73 1016.62 1017.57 1018.08 1018.44 1018.55 1018.64 1018.84 1018.88 1018.86 1018.64 1018.52 1018.01 1017.78 1017.81 1018.15 1018.30 1018.40 1018.54 1018.68 1018.75 1018.70 1018.53 1018.40
1008.25 1007.17 1006.73 1007.15 1007.36 1007.17 1006.93 1006.83 1007.47 1008.85 1009.46 1009.46 1010.50 1011.09 1012.25 1012.80 1012.93 1013.31 1013.99 1014.76 1015.48 1016.49 1017.27 1018.00 1018.45 1018.76 1018.95 1019.13 1019.28 1019.29 1019.17 1019.08 1018.54 1018.21 1018.43 1018.89 1019.03 1018.63 1018.46 1018.59 1018.90 1018.91 1018.64 1018.43
1006.88 1006.85 1007.72 1007.58 1007.57 1007.32 1007.07 1007.00 1007.57 1007.93 1009.40 1009.68 1009.95 1010.36 1011.52 1012.42 1013.07 1013.85 1014.25 1014.53 1015.35 1015.97 1016.93 1017.82 1018.38 1018.78 1019.14 1019.42 1019.53 1019.69 1019.68 1019.48 1019.27 1018.99 1018.79 1018.91 1018.83 1018.70 1018.54 1018.63 1018.82 1019.31 1019.03 1018.83
1007.16 1007.68 1007.66 1007.44 1007.16 1007.16 1007.21 1008.06 1008.19 1008.44 1008.55 1007.92 1009.41 1008.07 1009.55 1010.84 1012.17 1013.03 1013.57 1014.35 1014.96 1015.96 1016.76 1017.60 1018.29 1018.81 1019.29 1019.52 1019.87 1020.02 1020.08 1019.89 1019.90 1019.65 1019.56 1019.64 1019.23 1019.12 1019.47 1019.23 1019.59 1019.26 1019.55 1019.29
1007.31 1007.52 1007.52 1007.25 1007.23 1007.92 1007.87 1008.55 1008.53 1008.64 1008.33 1008.61 1008.49 1008.59 1008.04 1009.68 1010.60 1011.46 1012.53 1013.45 1014.31 1015.36 1016.26 1017.15 1017.84 1018.65 1019.11 1019.47 1019.81 1020.26 1020.45 1020.45 1020.48 1020.44 1020.21 1019.70 1019.75 1019.71 1019.85 1019.67 1019.75 1019.70 1019.59 1019.57
1007.67 1008.17 1007.90 1007.60 1008.55 1008.65 1008.89 1008.93 1008.86 1008.76 1008.21 1007.80 1007.57 1008.36 1007.44 1007.87 1009.12 1009.55 1011.27 1012.79 1013.80 1014.82 1015.87 1016.81 1017.75 1018.55 1019.02 1019.44 1019.82 1020.27 1020.58 1020.79 1020.80 1020.75 1020.86 1020.89 1020.82 1020.68 1020.19 1020.25 1019.65 1019.58 1019.53 1019.41
1007.71 1007.79 1008.43 1008.59 1008.49 1009.08 1008.83 1008.54 1007.89 1007.42 1007.24 1007.15 1008.49 1008.69 1007.81 1009.11 1009.95 1010.58 1011.11 1012.11 1013.30 1014.41 1015.39 1016.41 1017.33 1017.91 1018.58 1019.11 1019.53 1020.03 1020.49 1020.74 1020.91 1020.98 1021.06 1021.11 1021.16 1021.03 1020.79 1020.34 1020.31 1020.09 1019.79 1019.84
1007.16 1007.73 1008.24 1008.72 1008.31 1008.01 1008.40 1008.41 1008.00 1007.31 1007.15 1007.20 1008.73 1008.19 1007.97 1009.83 1010.73 1011.09 1011.57 1011.92 1012.97 1013.95 1014.77 1015.67 1016.68 1017.80 1018.41 1019.08 1019.51 1019.87 1020.22 1020.51 1020.77 1020.95 1021.14 1021.26 1021.18 1020.89 1020.66 1021.08 1020.64 1020.45 1020.14 1020.27
1007.34 1007.54 1008.80 1009.21 1009.15 1009.17 1008.65 1008.99 1009.28 1008.90 1008.85 1008.58 1007.75 1007.57 1008.65 1010.12 1010.75 1011.25 1011.52 1012.07 1012.82 1013.59 1014.45 1015.32 1016.58 1017.52 1017.95 1018.53 1019.22 1019.67 1019.93 1020.33 1020.62 1020.87 1020.99 1021.20 1021.29 1021.33 1021.22 1021.22 1020.93 1020.61 1020.64 1020.20
1007.88 1008.04 1008.89 1009.75 1009.69 1009.88 1009.39 1009.56 1009.56 1009.28 1008.83 1008.17 1007.39 1007.79 1008.30 1009.47 1010.20 1010.98 1011.43 1011.95 1012.52 1013.31 1014.15 1015.08 1015.78 1016.58 1017.26 1017.95 1018.73 1019.36 1019.80 1020.10 1020.47 1020.70 1020.81 1020.89 1021.10 1021.17 1021.24 1021.16 1021.03 1020.94 1020.79 1020.57
1008.46 1008.80 1009.24 1009.93 1009.39 1008.77 1009.88 1009.56 1009.85 1009.97 1009.85 1009.03 1008.37 1007.71 1008.72 1009.23 1010.01 1010.57 1011.08 1011.53 1012.10 1012.82 1013.57 1014.23 1015.07 1016.00 1016.84 1017.54 1018.10 1018.93 1019.42 1019.80 1020.13 1020.47 1020.63 1020.86 1020.91 1021.03 1021.11 1021.10 1020.98 1020.84 1020.73 1020.42
1009.09 1008.97 1008.63 1008.79 1009.86 1010.21 1009.78 1009.48 1009.57 1009.76 1009.64 1009.70 1009.73 1008.82 1009.35 1009.84 1010.15 1010.61 1010.93 1011.49 1012.07 1012.59 1013.21 1013.88 1014.76 1015.66 1016.36 1017.03 1017.64 1018.36 1019.04 1019.30 1019.68 1020.09 1020.42 1020.65 1020.86 1020.95 1021.01 1020.95 1020.83 1020.57 1020.51 1020.24
1009.57 1009.21 1008.83 1009.34 1010.23 1010.41 1009.94 1009.92 1010.18 1010.39 1010.77 1009.82 1009.37 1008.89 1009.67 1010.13 1010.52 1010.85 1011.02 1011.27 1011.87 1012.50 1013.22 1013.80 1014.61 1015.40 1016.14 1016.63 1017.35 1017.96 1018.63 1018.90 1019.15 1019.68 1020.09 1020.47 1020.75 1020.83 1020.91 1020.87 1020.71 1020.47 1020.35 1020.17
1009.88 1008.99 1008.55 1007.99 1007.91 1008.36 1009.37 1009.69 1010.24 1010.37 1009.89 1009.04 1008.53 1008.69 1009.12 1010.02 1010.45 1010.79 1011.26 1011.71 1012.16 1012.45 1012.98 1013.77 1014.44 1015.07 1015.79 1016.40 1017.18 1017.79 1018.12 1018.40 1018.94 1019.39 1019.69 1020.03 1020.75 1021.19 1021.15 1020.93 1020.70 1020.41 1020.15 1020.06
1010.09 1009.19 1008.98 1008.62 1009.19 1009.21 1009.16 1009.36 1009.72 1009.80 1009.51 1009.18 1008.57 1008.42 1008.82 1009.63 1009.93 1010.70 1011.90 1012.30 1012.69 1013.25 1013.68 1014.28 1014.81 1015.20 1015.91 1016.65 1017.26 1017.68 1018.01 1018.37 1019.10 1019.58 1019.87 1020.54 1021.31 1021.60 1021.70 1021.25 1021.71 1021.61 1021.01 1020.86
1010.29 1009.55 1009.58 1008.99 1009.66 1009.64 1009.25 1009.27 1009.21 1009.17 1009.37 1009.15 1009.04 1009.04 1009.54 1009.90 1010.34 1011.65 1012.26 1012.66 1013.23 1013.89 1014.56 1015.23 1015.91 1016.52 1017.00 1017.37 1017.69 1017.97 1018.43 1018.90 1019.71 1020.09 1020.69 1021.49 1021.72 1022.03 1022.25 1022.17 1022.25 1021.70 1021.40 1021.15
1009.72 1009.58 1009.99 1009.14 1009.23 1009.74 1009.15 1008.87 1008.72 1008.76 1009.01 1009.15 1008.87 1009.14 1009.94 1010.56 1011.43 1012.05 1012.68 1013.22 1013.92 1014.55 1015.21 1015.99 1016.73 1017.29 1017.67 1018.06 1018.36 1018.50 1019.09 1019.70 1020.01 1020.21 1020.72 1021.19 1021.59 1021.64 1021.88 1021.85 1021.67 1021.45 1021.22 1020.99
1009.35 1009.74 1009.77 1009.69 1010.34 1009.38 1008.27 1009.04 1008.88 1008.49 1008.45 1008.79 1009.37 1009.91 1010.51 1010.91 1011.83 1012.53 1013.12 1013.72 1014.45 1015.14 1015.87 1016.51 1017.21 1017.77 1018.11 1018.51 1018.94 1019.43 1019.75 1019.94 1020.23 1020.64 1021.08 1021.59 1021.75 1021.86 1021.73 1021.58 1021.22 1020.70 1020.41 1020.14
1009.76 1009.83 1009.83 1009.91 1009.57 1008.89 1008.65 1009.24 1009.39 1009.01 1008.59 1009.07 1009.53 1009.96 1010.85 1011.55 1012.49 1013.34 1014.01 1014.43 1015.16 1015.99 1016.71 1017.34 1017.91 1018.45 1018.79 1019.16 1019.55 1019.90 1020.28 1020.59 1020.90 1021.24 1021.59 1021.77 1021.71 1021.42 1021.16 1020.89 1020.89 1020.63 1020.33 1019.92
1010.20 1010.38 1010.09 1009.74 1009.53 1008.46 1008.23 1008.15 1009.02 1009.54 1008.66 1008.46 1009.66 1010.34 1011.19 1012.13 1012.28 1012.62 1014.42 1015.37 1016.11 1016.81 1017.47 1018.06 1018.57 1019.03 1019.56 1020.00 1020.26 1020.47 1020.74 1021.05 1021.17 1021.31 1021.37 1021.59 1021.75 1021.64 1021.40 1021.30 1021.09 1020.75 1020.35 1019.78
1009.40 1009.59 1009.49 1009.41 1009.09 1008.37 1008.05 1009.10 1009.60 1009.52 1008.77 1009.11 1009.81 1010.55 1011.42 1012.05 1012.61 1013.56 1014.75 1015.98 1016.85 1017.55 1018.18 1018.70 1019.06 1019.50 1020.16 1020.55 1020.86 1021.12 1021.21 1021.16 1021.39 1021.69 1021.89 1021.83 1021.89 1021.89 1021.55 1021.55 1021.21 1020.78 1020.55 1020.52
1008.02 1008.15 1008.29 1008.85 1008.51 1007.96 1008.50 1009.33 1009.15 1008.61 1009.02 1009.51 1010.07 1010.75 1011.58 1012.30 1013.73 1014.53 1015.47 1016.51 1017.36 1018.09 1018.70 1019.09 1019.65 1020.26 1020.83 1021.17 1021.23 1021.24 1021.40 1021.75 1021.95 1021.98 1021.83 1021.79 1021.85 1021.77 1021.46 1021.45 1021.12 1020.94 1021.03 1020.71
1007.19 1006.86 1007.25 1007.80 1007.39 1007.69 1008.25 1008.26 1008.80 1008.96 1009.25 1009.62 1010.09 1010.81 1011.67 1012.88 1013.86 1014.93 1015.91 1016.83 1017.65 1018.33 1018.99 1019.68 1020.17 1020.71 1020.89 1021.11 1021.25 1021.31 1021.86 1022.01 1021.78 1021.87 1021.93 1022.00 1021.92 1021.66 1021.45 1021.26 1021.24 1021.13 1021.12 1021.14
1006.69 1007.05 1007.41 1007.93 1007.49 1007.81 1008.12 1008.57 1008.76 1009.17 1009.11 1009.62 1010.15 1011.05 1011.84 1012.81 1013.97 1015.13 1016.22 1017.20 1017.93 1018.63 1019.25 1019.70 1019.96 1020.20 1020.79 1021.34 1021.69 1021.82 1021.87 1022.01 1022.04 1022.15 1022.09 1022.03 1021.83 1022.12 1021.56 1021.50 1021.13 1021.27 1021.20 1020.99
1005.30 1006.97 1006.77 1006.95 1007.24 1007.72 1007.97 1008.24 1008.72 1009.18 1009.48 1009.93 1010.56 1011.26 1012.01 1013.11 1014.29 1015.35 1016.37 1017.28 1017.98 1018.68 1019.26 1019.74 1020.09 1020.50 1020.98 1021.29 1021.53 1021.84 1021.99 1022.14 1022.18 1022.22 1022.39 1022.11 1021.68 1021.76 1021.62 1021.67 1021.95 1022.12 1022.35 1023.02
1005.61 1005.55 1005.95 1005.93 1006.19 1006.92 1006.72 1007.81 1008.48 1009.24 1009.68 1010.27 1010.95 1011.74 1012.69 1013.63 1014.71 1015.71 1016.65 1017.54 1018.24 1018.85 1019.54 1020.05 1020.45 1020.76 1021.17 1021.40 1021.72 1022.08 1022.28 1022.25 1022.25 1022.32 1022.16 1022.25 1021.73 1021.54 1021.51 1021.39 1021.89 1022.81 1022.96 1022.97
Wind_Speed
6 10 12 13 13 8 1 5 3 3 2 4 3 7 8 8 9 10 9 8 7 8 8 8 8 8 9 10 10 11 11 9 6 6 6 5 4 4 4 5 8 8 8 8
9 13 1 5 5 9 9 8 7 5 4 5 9 8 7 8 10 8 8 8 9 10 9 8 8 8 9 9 9 10 10 10 8 7 6 3 2 4 5 5 6 9 9 10
11 8 5 9 10 11 8 9 6 2 7 3 9 9 11 10 8 8 8 6 7 9 10 9 8 8 8 9 8 9 9 10 10 7 4 3 3 2 4 5 6 9 10 10
6 6 9 10 11 9 11 2 3 6 8 4 7 6 14 15 14 13 13 11 11 10 9 9 10 8 8 8 8 9 9 8 9 7 7 8 6 6 6 5 7 6 10 10
7 9 10 11 3 2 7 3 2 2 7 8 12 9 7 11 12 15 15 13 12 12 12 12 11 9 8 7 8 7 8 9 9 9 7 5 6 4 5 5 6 5 6 9
6 2 3 3 6 1 9 7 5 6 8 12 7 6 12 11 6 8 16 14 14 14 13 12 10 9 8 7 7 7 7 7 8 8 9 8 8 7 6 7 6 5 6 6
7 9 5 6 9 7 9 8 9 8 9 6 6 6 11 4 1 4 6 14 14 14 14 13 13 10 9 8 8 7 7 7 7 7 7 7 6 6 6 5 6 6 6 7
9 11 11 4 7 6 10 9 10 8 7 4 6 7 3 3 1 4 6 12 14 15 13 13 11 9 9 7 7 7 8 7 6 6 6 5 4 5 4 6 5 6 5 6
8 9 7 1 2 5 7 10 5 9 9 10 13 4 10 4 4 5 9 12 13 14 12 12 10 9 10 9 7 6 6 6 5 5 4 5 4 5 5 4 3 4 5 5
4 5 4 6 4 4 7 5 6 9 9 12 7 5 9 7 7 8 12 14 15 13 13 12 12 10 8 8 8 7 7 7 6 4 3 3 3 1 1 2 3 4 4 5
6 8 8 5 11 9 7 10 6 6 6 10 12 6 5 3 6 8 10 12 14 13 12 12 11 10 10 9 9 8 8 8 7 6 5 4 4 3 3 4 5 6 6 6
8 7 12 12 5 3 5 10 8 9 9 7 9 14 6 4 3 6 8 10 12 11 11 11 11 11 11 11 10 9 8 8 8 7 6 6 5 5 6 6 7 8 9 9
9 8 11 8 7 7 10 11 10 7 6 14 14 10 5 6 6 4 5 8 11 11 11 10 10 11 11 11 9 9 9 9 8 8 8 7 7 6 6 7 8 9 10 10
4 7 12 13 8 2 10 12 13 14 11 14 15 17 7 9 7 4 5 3 5 6 9 10 10 11 10 9 8 8 8 7 6 6 7 5 5 8 8 9 10 9 8 9
6 10 12 14 6 6 9 10 14 17 17 17 14 14 9 12 11 6 5 3 3 3 3 3 4 3 4 6 7 7 6 4 2 3 3 4 4 6 7 8 9 9 9 11
6 9 7 13 8 10 14 14 16 17 18 16 17 18 15 13 8 7 5 6 8 10 12 12 10 9 7 5 1 1 4 1 5 5 5 6 7 5 4 3 5 4 5 10
9 8 8 15 9 11 15 19 20 19 19 14 17 12 7 4 6 7 8 9 11 11 12 11 10 9 7 8 6 5 7 2 2 4 7 5 5 3 3 5 4 6 6 8
9 12 10 12 3 16 9 1 8 14 16 14 12 9 5 5 8 8 8 10 10 10 9 8 8 8 9 8 8 7 6 6 6 7 7 6 5 5 6 8 7 10 10 10
7 10 9 10 13 15 11 7 8 10 12 13 13 7 8 10 10 9 7 6 8 8 8 8 8 8 9 9 8 8 7 7 6 5 5 5 5 7 9 9 10 9 9 9
7 7 10 7 12 11 5 6 6 3 14 14 12 11 14 13 11 10 11 8 8 8 8 8 8 8 8 8 7 6 6 4 3 4 6 8 7 8 9 10 10 10 10 11
11 11 16 14 13 9 3 11 10 10 1 10 13 14 15 13 5 13 12 9 8 8 9 8 6 7 7 6 6 6 3 3 6 6 3 5 6 7 7 9 10 9 9 8
13 10 12 14 19 19 9 13 13 3 7 12 12 14 14 9 11 12 12 11 11 10 9 7 7 7 7 6 4 3 2 3 3 3 4 6 7 7 8 9 9 9 7 8
13 16 10 10 7 3 15 10 9 6 9 12 13 12 14 13 12 13 12 11 10 9 8 7 9 7 6 4 3 2 3 1 4 5 5 7 8 8 9 9 8 8 7 7
13 5 9 6 13 9 11 10 9 8 8 11 12 14 13 14 13 13 12 11 10 10 10 9 7 5 5 4 2 1 3 4 5 6 6 7 8 7 7 6 6 5 6 9
6 15 13 12 4 6 9 14 11 11 8 13 13 14 13 13 13 13 12 10 9 9 8 6 5 4 3 1 3 4 6 6 5 4 4 5 3 4 5 4 5 7 9 7
9 10 12 9 13 12 10 15 13 13 14 15 16 14 12 13 13 13 12 11 10 9 8 7 6 4 3 3 4 5 5 6 5 3 4 3 4 4 3 5 4 4 4 5
Wind_Direction
194 241 217 212 224 317 258 250 208 71 118 228 230 165 174 179 194 181 172 162 140 112 100 91 81 75 77 63 57 45 51 46 55 36 40 34 40 42 54 42 26 22 12 13
202 229 156 282 198 222 224 207 125 120 148 263 182 184 202 194 199 190 180 172 149 142 123 108 98 87 73 65 56 53 50 46 43 51 74 68 94 47 33 48 44 25 18 13
256 84 158 195 191 204 211 236 154 18 151 206 187 184 191 194 202 203 213 173 160 155 139 131 117 101 91 73 63 61 58 53 48 34 90 111 136 81 41 41 31 32 22 21
222 121 179 193 185 231 174 143 164 156 227 239 208 280 187 173 202 206 198 193 178 161 149 142 140 125 100 86 77 71 63 55 64 39 67 51 45 40 27 27 42 41 27 23
115 173 186 197 134 250 87 158 215 242 261 290 194 249 109 172 202 206 205 195 186 172 164 156 149 133 114 109 91 83 72 67 65 60 42 60 41 67 45 35 21 42 49 33
90 103 262 61 107 243 143 174 201 240 260 246 249 263 266 189 223 216 187 197 186 174 167 156 147 146 134 126 109 101 92 86 82 77 73 68 63 44 34 34 20 28 30 30
173 162 128 177 150 154 212 222 246 225 207 246 103 243 272 87 18 253 229 196 183 171 169 167 168 164 152 132 126 120 117 109 106 95 84 79 71 55 62 12 42 9 33 29
208 178 181 158 265 277 214 285 276 287 273 268 153 249 101 74 222 229 242 184 176 176 170 170 161 153 159 145 138 141 137 133 121 109 104 94 57 67 69 61 28 36 33 39
217 228 127 22 201 277 166 234 357 289 248 262 264 212 202 181 189 192 188 176 182 181 176 174 167 172 177 164 154 158 139 142 137 122 117 104 85 48 57 54 343 34 20 13
194 240 203 142 187 110 282 106 206 205 272 277 277 243 268 184 202 190 189 193 188 184 184 186 190 179 183 174 164 176 181 179 175 173 159 138 133 126 26 328 342 340 338 338
217 244 147 188 209 230 172 216 240 301 303 296 294 302 66 223 180 189 201 200 196 192 196 196 193 185 190 190 190 189 198 199 196 205 204 217 237 246 267 287 300 306 308 308
198 240 244 218 100 281 277 262 231 252 245 237 298 280 102 142 215 208 206 204 213 217 209 210 204 198 201 199 201 192 206 219 210 211 223 237 249 265 277 285 295 300 296 298
177 207 221 199 189 194 226 211 236 257 278 263 278 266 140 160 181 185 233 220 214 218 220 220 214 207 208 209 207 209 203 219 231 210 221 225 245 260 280 290 295 297 299 294
194 231 232 255 296 64 197 219 218 222 254 274 260 263 214 186 216 223 244 237 270 247 221 220 217 216 213 213 208 214 219 226 221 237 241 278 308 320 322 320 317 320 318 303
226 234 234 250 254 233 252 231 223 233 248 260 271 272 264 271 264 277 308 257 186 142 144 142 216 231 186 195 213 224 240 238 286 300 318 349 1 32 14 44 4 13 3 342
192 234 238 240 228 253 251 244 249 239 243 254 258 268 276 277 278 247 231 158 125 108 101 93 90 87 81 73 352 239 240 319 25 24 41 81 82 69 56 17 329 330 339 306
196 213 220 251 257 265 255 246 245 242 243 254 256 274 7 249 220 195 157 133 119 109 101 98 93 87 79 77 73 76 67 82 67 107 103 95 71 39 4 326 318 308 316 305
202 208 239 256 207 249 257 16 268 259 252 237 243 265 260 206 161 151 154 133 122 109 101 92 92 85 78 68 71 90 96 83 67 49 58 38 10 342 318 306 294 322 313 309
231 218 233 242 227 254 215 195 212 216 238 217 239 219 187 144 153 149 125 114 104 98 90 85 84 83 78 76 80 83 84 85 75 66 12 349 326 321 324 330 328 319 317 312
195 242 239 210 242 250 70 62 171 226 255 217 210 181 166 165 199 157 148 134 120 107 102 100 98 94 79 73 68 72 75 66 67 37 0 360 340 328 324 331 321 319 313 304
200 214 224 232 236 264 186 148 163 219 90 145 180 172 173 191 62 121 131 132 122 118 117 113 96 84 81 75 86 102 149 51 22 15 340 341 337 325 319 319 314 320 319 338
212 207 222 231 241 240 150 164 207 150 137 159 176 174 176 144 129 132 134 138 134 128 131 118 106 99 95 99 115 106 83 38 27 314 318 335 336 325 330 325 317 328 353 340
237 231 241 211 239 93 178 206 194 174 161 170 177 168 168 154 151 144 141 141 137 137 124 121 123 132 142 139 23 329 47 272 283 328 337 333 329 336 323 323 346 320 349 327
217 195 223 183 214 203 195 191 204 197 181 172 168 168 167 165 151 143 141 141 145 139 143 150 161 138 114 74 87 263 268 294 311 329 334 326 328 342 343 321 350 348 348 349
200 171 213 224 194 188 208 203 197 188 170 161 157 162 163 152 146 148 145 149 145 141 141 145 136 118 118 66 34 353 334 316 314 305 326 312 346 20 358 12 18 3 33 5
184 195 202 225 219 211 212 194 181 172 166 159 154 151 148 149 148 146 149 148 148 145 145 147 139 127 85 27 9 355 338 316 345 342 305 42 316 10 353 344 93 142 118 119